Weather History for KBBW - December, 2012

Change the Weather History Date:

Monday, December 3, 2012

  Actual Average Record
Temperature  
Mean Temperature 39 °F 28 °F  
Max Temperature 57 °F 40 °F 75 °F (1959)
Min Temperature 20 °F 15 °F -9 °F (1919)
Degree Days  
Heating Degree Days 26 37  
Month to date heating degree days 59 111  
Cooling Degree Days 0 0  
Month to date cooling degree days 0 0  
Year to date cooling degree days 1077 768  
Moisture  
Dew Point 24 °F    
Average Humidity 57    
Maximum Humidity 92    
Minimum Humidity 22    
Precipitation  
Precipitation 0.00 in 0.03 in 1.00 in (1897)
Sea Level Pressure  
Sea Level Pressure 29.86 in    
Wind  
Wind Speed 12 mph (NW)    
Max Wind Speed 33 mph    
Max Gust Speed 44 mph    
Visibility 10 miles    
Events      
T = Trace of Precipitation, MM = Missing Value Source: NWS Daily Summary

Daily Weather History Graph

Daily Weather History Graph

Search for Another Location

Airport or City:

Trip Planner

Search our weather history database for the weather conditions in past years. The results will help you decide how hot, cold, wet, or windy it might be!

Date:

Astronomy

Dec. 03, 2012 Rise Set
Actual Time 7:47 AM CST 5:09 PM CST
Civil Twilight 7:16 AM CST 5:40 PM CST
Nautical Twilight 6:42 AM CST 6:14 PM CST
Astronomical Twilight 6:09 AM CST 6:48 PM CST
Moon 9:59 PM CST (12/3) 11:10 AM CST (12/3)
Length of Visible Light 10h 23m
Length of Day
9h 21m
Waning Gibbous, 78% of the Moon is Illuminated
Dec 3
Waning Gibbous
Dec 6
Last Quarter
Dec 13
New
Dec 19
First Quarter
Dec 28
Full

Hourly Weather History & Observations

Time (CST) Temp. Windchill Dew Point Humidity Pressure Visibility Wind Dir Wind Speed Gust Speed Precip Events Conditions
12:53 AM 41.0 °F 35.8 °F 33.1 °F 73% 29.59 in 10.0 mi SSW 8.1 mph - N/A   Clear
1:53 AM 36.0 °F 32.1 °F 30.0 °F 79% 29.57 in 10.0 mi SW 4.6 mph - N/A   Clear
2:53 AM 34.0 °F 28.8 °F 30.0 °F 85% 29.57 in 10.0 mi SW 5.8 mph - N/A   Clear
3:53 AM 34.0 °F - 30.9 °F 89% 29.58 in 10.0 mi Calm Calm - N/A   Clear
4:53 AM 32.0 °F - 30.0 °F 92% 29.60 in 10.0 mi Calm Calm - N/A   Clear
5:53 AM 34.0 °F 31.0 °F 30.9 °F 89% 29.61 in 10.0 mi NNW 3.5 mph - N/A   Clear
6:53 AM 50.0 °F - 32.0 °F 50% 29.63 in 10.0 mi NNW 17.3 mph 25.3 mph N/A   Clear
7:04 AM 51.8 °F - 32.0 °F 47% 29.64 in 10.0 mi NNW 21.9 mph 28.8 mph N/A   Clear
7:53 AM 51.1 °F - 35.1 °F 54% 29.68 in 10.0 mi North 28.8 mph 38.0 mph N/A   Clear
8:53 AM 51.8 °F - 35.6 °F 54% 29.75 in 10.0 mi North 28.8 mph 40.3 mph N/A   Clear
9:53 AM 51.1 °F - 37.0 °F 59% 29.81 in 10.0 mi North 25.3 mph 40.3 mph N/A   Clear
10:53 AM 51.1 °F - 35.1 °F 54% 29.88 in 10.0 mi NNW 28.8 mph 35.7 mph N/A   Clear
11:53 AM 54.0 °F - 30.9 °F 41% 29.89 in 10.0 mi NNW 24.2 mph 32.2 mph N/A   Clear
12:53 PM 55.9 °F - 23.0 °F 28% 29.90 in 10.0 mi NNW 21.9 mph 29.9 mph N/A   Clear
1:53 PM 55.9 °F - 19.9 °F 25% 29.94 in 10.0 mi NNW 24.2 mph 31.1 mph N/A   Clear
2:53 PM 55.9 °F - 17.1 °F 22% 29.97 in 10.0 mi North 18.4 mph 28.8 mph N/A   Clear
3:53 PM 54.0 °F - 16.0 °F 22% 29.99 in 10.0 mi NNW 17.3 mph - N/A   Clear
4:53 PM 50.0 °F - 15.1 °F 25% 30.04 in 10.0 mi North 10.4 mph - N/A   Clear
5:53 PM 36.0 °F 32.1 °F 14.0 °F 41% 30.09 in 10.0 mi NW 4.6 mph - N/A   Clear
6:53 PM 32.0 °F 28.7 °F 12.9 °F 45% 30.09 in 10.0 mi WNW 3.5 mph - N/A   Clear
7:53 PM 27.0 °F 21.6 °F 12.9 °F 56% 30.12 in 10.0 mi WNW 4.6 mph - N/A   Clear
8:53 PM 24.1 °F - 12.0 °F 60% 30.14 in 10.0 mi Calm Calm - N/A   Clear
9:53 PM 21.9 °F - 10.0 °F 60% 30.16 in 10.0 mi Calm Calm - N/A   Clear
10:53 PM 25.0 °F - 14.0 °F 63% 30.17 in 10.0 mi Calm Calm - N/A   Clear
11:53 PM 19.4 °F 14.3 °F 10.4 °F 68% 30.13 in 10.0 mi NNW 3.5 mph - N/A   Clear